User: anonymous   Login
Location: Unspecified
(41.1637°N, 0.0000°E)
Time: 02:40:21
(UTC+00:00)
Language:

ITUPSAT 1 - Orbit

View from above orbital plane
View from above orbital plane
View from above satellite
View from above satellite

Ground track
Ground track

The orbit data is extracted from the following two-line orbital elements,

1 35935U 09051E   19232.14504606  .00000038  00000-0  19869-4 0  9991
2 35935  98.6076  41.9853 0007870 353.6009   6.5085 14.55545831525727
Epoch (UTC): 20 August 2019 03:28:51
Eccentricity: 0.0007870
inclination: 98.6076°
perigee height: 702 km
apogee height: 713 km
right ascension of ascending node: 41.9853°
argument of perigee: 353.6009°
revolutions per day: 14.55545831
mean anomaly at epoch: 6.5085°
orbit number at epoch: 52572

The dashed part of the orbit path shows where the satellite is in the earth's shadow,  

DLR